Location: Newark
(47.5833°N, 8.1500°E)
Time: 18:52:49
(UTC+00:00)

Transit 2A - Pass Details

Date: 04 November 2020
Orbit: 595 x 964 km, 66.7° (Epoch: 01 December)

Event Time Altitude Azimuth Distance (km) Brightness Sun altitude
Rises 01:03:02 0° 260° (W) 3,646 - -50.4°
Reaches altitude 10° 01:06:09 10° 273° (W) 2,691 - -50.0°
Maximum altitude 01:11:11 24° 326° (NW) 1,830 - -49.4°
Drops below altitude 10° 01:16:03 10° 20° (NNE) 2,586 - -48.8°
Exits shadow 01:16:37 - 23° (NNE) 2,743 9.3 -48.7°
Sets 01:19:00 0° 34° (NNE) 3,472 10.0 -48.4°
